This is the latest recevied weather packets stored in our database for station/object SP2FH-13. If no packets are shown the sender has not sent any weather packets the latest 10 day(s).
| Time | Temp. | Humidity | Pressure | Rain* | Wind** | Luminosity | Snow |
|---|---|---|---|---|---|---|---|
| 1778179983 | 8.89° C | 79% | 1005.1 hPa | - | - | - | - |
| 1778179079 | 8.89° C | 79% | 1004.7 hPa | - | - | - | - |
| 1778178778 | 8.89° C | 79% | 1004.7 hPa | - | - | - | - |
| 1778178477 | 8.89° C | 78% | 1004.7 hPa | - | - | - | - |
| 1778178176 | 8.89° C | 79% | 1004.7 hPa | - | - | 1 W/m² | - |
| 1778177574 | 8.89° C | 78% | 1004.4 hPa | - | - | 3 W/m² | - |
| 1778177272 | 8.89° C | 78% | 1004.3 hPa | - | - | 4 W/m² | - |
| 1778176971 | 9.44° C | 79% | 1004.3 hPa | - | - | 5 W/m² | - |
| 1778176670 | 9.44° C | 80% | 1004.3 hPa | - | - | 7 W/m² | - |
| 1778176368 | 9.44° C | 79% | 1004.3 hPa | - | - | 7 W/m² | - |
| 1778175767 | 9.44° C | 78% | 1004.1 hPa | - | - | 10 W/m² | - |
| 1778175466 | 9.44° C | 78% | 1004.1 hPa | - | - | 11 W/m² | - |
| 1778175164 | 9.44° C | 79% | 1004.1 hPa | - | - | 18 W/m² | - |
| 1778174567 | 9.44° C | 79% | 1003.9 hPa | - | - | 26 W/m² | - |
| 1778173960 | 9.44° C | 79% | 1003.6 hPa | - | - | 35 W/m² | - |
| 1778173659 | 9.44° C | 79% | 1003.6 hPa | - | - | 36 W/m² | - |
| 1778173358 | 9.44° C | 79% | 1003.6 hPa | - | - | 31 W/m² | - |
| 1778173056 | 9.44° C | 78% | 1003.5 hPa | - | - | 34 W/m² | - |
| 1778172755 | 9.44° C | 78% | 1003.5 hPa | - | - | 32 W/m² | - |
| 1778171550 | 10° C | 80% | 1003.5 hPa | - | - | 76 W/m² | - |
| 1778171250 | 10° C | 79% | 1003.4 hPa | - | - | 80 W/m² | - |
| 1778170948 | 10° C | 80% | 1003.5 hPa | - | - | 114 W/m² | - |
| 1778170346 | 9.44° C | 79% | 1003.4 hPa | - | - | 93 W/m² | - |
| 1778169743 | 10° C | 80% | 1003.5 hPa | - | - | 93 W/m² | - |
| 1778169442 | 10° C | 80% | 1003.3 hPa | - | - | 109 W/m² | - |
* Rain since midnight (hover to see other rain measurements)
** Current wind speed in m/s (hover to see current wind gust speed)